Tracking 24266 objects as of 9-Dec-2021
HD Live streaming from Space Station
objects crossing your sky now

NANOSAT C BR2

Track NANOSAT C BR2 now!
10-day predictions
NANOSAT C BR2 is classified as:


NORAD ID: 47950
Int'l Code: 2021-022U
Perigee: 539.1 km
Apogee: 571.0 km
Inclination: 97.5 °
Period: 95.6 minutes
Semi major axis: 6926 km
RCS: Unknown
Launch date: March 22, 2021
Source: (TBD)
Launch site: TYURATAM MISSILE AND SPACE COMPLEX (TTMTR)

Uplink (MHz):
Downlink (MHz): 145.865
Beacon (MHz):
Mode: 1k2/2k4/4k8/9k6BPSK
Call sign: NCBR2
Status: Active

aabbcc
Your satellite tracking list
Your tracking list is empty




NASA's NSSDC Master Catalog

Two Line Element Set (TLE):
1 47950U 21022U   21342.87147507  .00001846  00000-0  12957-3 0  9999
2 47950  97.5426 241.3305 0022990  78.7419 281.6399 15.06164437 39306
Source of the keplerian elements: AFSPC